When you browse on this site, cookies collect data to enhance your experience and personalize the content and advertising you see.
Visit our Privacy Policy to learn more. By continuing to use the site, you agree to this use of cookies and data.
  • In Hungary
  • List of Countries
  • For 7 days
  • Water Temperature
  • Satellite Maps
  • Weather Map
  • News
  • Weather Widgets
  • user-avatar
    Login

    Hourly Weather Priego de Cordoba

    Today, 19 November, Monday

    Time Temperature Precipitation Wind Pressure Humidity
    00:00 +10°C° 0 mm 2 mps 694 mmHg 88%
    01:00 +10°C° 0.7 mm 1 mps 694 mmHg 89%
    02:00 +10°C° 0.7 mm 1 mps 694 mmHg 90%
    03:00 +10°C° 0.7 mm 1 mps 694 mmHg 90%
    04:00 +10°C° 0.8 mm 1 mps 694 mmHg 91%
    05:00 +10°C° 0.8 mm 1 mps 694 mmHg 92%
    06:00 +9°C° 0 mm 0 mps 694 mmHg 92%
    07:00 +10°C° 0.3 mm 1 mps 694 mmHg 90%
    08:00 +10°C° 0.3 mm 1 mps 695 mmHg 88%
    09:00 +11°C° 0.3 mm 1 mps 695 mmHg 86%
    10:00 +11°C° 0.3 mm 1 mps 695 mmHg 84%
    11:00 +12°C° 0.3 mm 2 mps 695 mmHg 82%
    12:00 +12°C° 0.3 mm 2 mps 696 mmHg 80%
    13:00 +11°C° 0.4 mm 3 mps 696 mmHg 79%
    14:00 +12°C° 0.4 mm 3 mps 695 mmHg 79%
    15:00 +12°C° 0.4 mm 3 mps 695 mmHg 78%
    16:00 +11°C° 0.8 mm 3 mps 696 mmHg 81%
    17:00 +11°C° 0.8 mm 3 mps 696 mmHg 84%
    18:00 +10°C° 0.8 mm 3 mps 696 mmHg 87%
    19:00 +10°C° 0.7 mm 3 mps 696 mmHg 88%
    20:00 +10°C° 0.7 mm 3 mps 697 mmHg 89%
    21:00 +10°C° 0.7 mm 3 mps 697 mmHg 89%
    22:00 +10°C° 0.3 mm 3 mps 697 mmHg 89%
    23:00 +9°C° 0.3 mm 2 mps 697 mmHg 90%

    Tomorrow, 20 November, Tuesday

    Time Temperature Precipitation Wind Pressure Humidity
    00:00 +9°C° 0.3 mm 2 mps 697 mmHg 90%
    01:00 +9°C° 0 mm 2 mps 697 mmHg 90%
    02:00 +8°C° 0 mm 2 mps 697 mmHg 91%
    03:00 +8°C° 0 mm 2 mps 696 mmHg 91%
    04:00 +8°C° 0.7 mm 2 mps 696 mmHg 90%
    05:00 +8°C° 0.7 mm 2 mps 696 mmHg 88%
    06:00 +9°C° 0.7 mm 2 mps 696 mmHg 87%
    07:00 +9°C° 1.1 mm 2 mps 696 mmHg 87%
    08:00 +9°C° 1.1 mm 2 mps 697 mmHg 87%
    09:00 +10°C° 1.1 mm 2 mps 697 mmHg 86%
    10:00 +10°C° 0.4 mm 3 mps 697 mmHg 85%
    11:00 +11°C° 0.4 mm 4 mps 697 mmHg 84%
    12:00 +12°C° 0.4 mm 4 mps 698 mmHg 83%
    13:00 +12°C° 0.4 mm 5 mps 698 mmHg 80%
    14:00 +11°C° 0.4 mm 6 mps 698 mmHg 78%
    15:00 +11°C° 0.4 mm 7 mps 698 mmHg 75%
    16:00 +10°C° 0.1 mm 6 mps 699 mmHg 78%
    17:00 +9°C° 0.1 mm 5 mps 699 mmHg 81%
    18:00 +8°C° 0.1 mm 4 mps 700 mmHg 84%
    19:00 +8°C° 0 mm 4 mps 700 mmHg 86%
    20:00 +9°C° 0 mm 3 mps 700 mmHg 88%
    21:00 +8°C° 0 mm 3 mps 701 mmHg 89%
    22:00 +8°C° 0.1 mm 3 mps 701 mmHg 90%
    23:00 +8°C° 0.1 mm 3 mps 701 mmHg 90%

    Day after tomorrow, 21 November, Wednesday

    Time Temperature Precipitation Wind Pressure Humidity
    00:00 +8°C° 0.1 mm 3 mps 701 mmHg 90%
    01:00 +8°C° 0.1 mm 2 mps 702 mmHg 90%
    02:00 +8°C° 0.1 mm 2 mps 702 mmHg 90%
    03:00 +8°C° 0.1 mm 2 mps 702 mmHg 90%
    04:00 +8°C° 0.4 mm 2 mps 702 mmHg 90%
    05:00 +9°C° 0.4 mm 2 mps 702 mmHg 90%
    06:00 +9°C° 0.4 mm 2 mps 702 mmHg 90%
    07:00 +9°C° 0.5 mm 2 mps 702 mmHg 89%
    08:00 +10°C° 0.5 mm 2 mps 703 mmHg 88%
    09:00 +10°C° 0.5 mm 2 mps 704 mmHg 88%
    10:00 +11°C° 0.2 mm 3 mps 704 mmHg 82%
    11:00 +12°C° 0.2 mm 3 mps 704 mmHg 76%
    12:00 +13°C° 0.2 mm 4 mps 704 mmHg 70%
    13:00 +13°C° 0.1 mm 3 mps 704 mmHg 68%
    14:00 +13°C° 0.1 mm 3 mps 704 mmHg 67%
    15:00 +13°C° 0.1 mm 3 mps 704 mmHg 65%
    16:00 +12°C° 0.2 mm 3 mps 704 mmHg 71%
    17:00 +12°C° 0.2 mm 2 mps 704 mmHg 77%
    18:00 +11°C° 0.2 mm 1 mps 704 mmHg 83%
    19:00 +11°C° 0.1 mm 1 mps 705 mmHg 84%
    20:00 +11°C° 0.1 mm 1 mps 705 mmHg 86%
    21:00 +10°C° 0.1 mm 1 mps 705 mmHg 87%
    22:00 +10°C° 0 mm 1 mps 705 mmHg 86%
    23:00 +10°C° 0 mm 1 mps 705 mmHg 85%

    22 November, Thursday

    Time Temperature Precipitation Wind Pressure Humidity
    00:00 +10°C° 0 mm 1 mps 705 mmHg 84%
    01:00 +10°C° 0 mm 1 mps 705 mmHg 84%
    02:00 +10°C° 0 mm 1 mps 705 mmHg 84%
    03:00 +10°C° 0 mm 1 mps 705 mmHg 84%
    04:00 +10°C° 0 mm 1 mps 705 mmHg 85%
    05:00 +10°C° 0 mm 1 mps 705 mmHg 86%
    06:00 +10°C° 0 mm 1 mps 705 mmHg 87%
    07:00 +11°C° 0 mm 1 mps 705 mmHg 84%
    08:00 +11°C° 0 mm 1 mps 706 mmHg 81%
    09:00 +12°C° 0 mm 1 mps 706 mmHg 79%
    10:00 +13°C° 0.1 mm 1 mps 706 mmHg 77%
    11:00 +13°C° 0.1 mm 1 mps 706 mmHg 75%
    12:00 +14°C° 0.1 mm 1 mps 706 mmHg 73%
    13:00 +14°C° 0.1 mm 1 mps 706 mmHg 72%
    14:00 +14°C° 0.1 mm 1 mps 705 mmHg 72%
    15:00 +14°C° 0.1 mm 1 mps 705 mmHg 72%
    16:00 +14°C° 0.5 mm 1 mps 705 mmHg 76%
    17:00 +13°C° 0.5 mm 1 mps 705 mmHg 81%
    18:00 +11°C° 0.5 mm 0 mps 705 mmHg 85%
    19:00 +12°C° 0.1 mm 1 mps 705 mmHg 86%
    20:00 +12°C° 0.1 mm 1 mps 705 mmHg 86%
    21:00 +12°C° 0.1 mm 1 mps 706 mmHg 86%
    22:00 +11°C° 0 mm 1 mps 705 mmHg 85%
    23:00 +11°C° 0 mm 1 mps 705 mmHg 84%

    23 November, Friday

    Time Temperature Precipitation Wind Pressure Humidity
    00:00 +11°C° 0 mm 1 mps 705 mmHg 83%
    01:00 +10°C° 0 mm 2 mps 705 mmHg 82%
    02:00 +10°C° 0 mm 2 mps 704 mmHg 81%
    03:00 +9°C° 0 mm 2 mps 704 mmHg 79%
    04:00 +9°C° 0 mm 2 mps 703 mmHg 78%
    05:00 +9°C° 0 mm 2 mps 703 mmHg 77%
    06:00 +9°C° 0 mm 2 mps 703 mmHg 75%
    07:00 +11°C° 0 mm 1 mps 703 mmHg 73%
    08:00 +12°C° 0 mm 1 mps 704 mmHg 70%
    09:00 +12°C° 0 mm 1 mps 704 mmHg 67%
    10:00 +13°C° 0 mm 1 mps 704 mmHg 64%
    11:00 +14°C° 0 mm 1 mps 704 mmHg 61%
    12:00 +15°C° 0 mm 1 mps 705 mmHg 57%
    13:00 +16°C° 0 mm 1 mps 704 mmHg 57%
    14:00 +16°C° 0 mm 1 mps 704 mmHg 56%
    15:00 +16°C° 0 mm 1 mps 704 mmHg 56%
    16:00 +15°C° 0 mm 1 mps 704 mmHg 61%
    17:00 +14°C° 0 mm 1 mps 704 mmHg 67%
    18:00 +13°C° 0 mm 1 mps 705 mmHg 73%
    19:00 +12°C° 0 mm 1 mps 705 mmHg 74%
    20:00 +12°C° 0 mm 1 mps 705 mmHg 75%
    21:00 +12°C° 0 mm 1 mps 705 mmHg 77%
    22:00 +11°C° 0 mm 0 mps 705 mmHg 76%
    23:00 +11°C° 0 mm 0 mps 705 mmHg 76%

    24 November, Saturday

    Time Temperature Precipitation Wind Pressure Humidity
    00:00 +11°C° 0 mm 0 mps 705 mmHg 76%
    01:00 +11°C° 0.4 mm 0 mps 705 mmHg 78%
    02:00 +11°C° 0.4 mm 0 mps 704 mmHg 80%
    03:00 +11°C° 0.4 mm 0 mps 704 mmHg 82%
    04:00 +12°C° 0.2 mm 1 mps 704 mmHg 82%
    05:00 +11°C° 0.2 mm 1 mps 704 mmHg 83%
    06:00 +11°C° 0.2 mm 1 mps 704 mmHg 84%
    07:00 +12°C° 0.3 mm 1 mps 704 mmHg 83%
    08:00 +12°C° 0.3 mm 1 mps 705 mmHg 83%
    09:00 +12°C° 0.3 mm 1 mps 705 mmHg 82%
    10:00 +13°C° 0.2 mm 1 mps 705 mmHg 80%
    11:00 +14°C° 0.2 mm 1 mps 705 mmHg 77%
    12:00 +14°C° 0.2 mm 1 mps 704 mmHg 75%
    13:00 +14°C° 0.3 mm 1 mps 704 mmHg 76%
    14:00 +14°C° 0.3 mm 1 mps 704 mmHg 78%
    15:00 +14°C° 0.3 mm 1 mps 704 mmHg 79%
    16:00 +13°C° 0.4 mm 1 mps 704 mmHg 83%
    17:00 +13°C° 0.4 mm 1 mps 704 mmHg 87%
    18:00 +12°C° 0.4 mm 1 mps 704 mmHg 91%
    19:00 +12°C° 0.2 mm 1 mps 704 mmHg 91%
    20:00 +12°C° 0.2 mm 2 mps 704 mmHg 92%
    21:00 +12°C° 0.2 mm 2 mps 705 mmHg 93%
    22:00 +10°C° 0.1 mm 2 mps 705 mmHg 93%
    23:00 +10°C° 0.1 mm 2 mps 705 mmHg 93%
    Show more